RH
68 65 65 71 62 67 82 56 50 49 45 45 37 42 44 54 52 58 62 51 54 55 56 64 80 78 77 80 80 81 80 78 77 77 76 73 74 74 74 74 74 73 74 73 73 73 73 71 71
58 59 62 66 62 70 71 63 59 50 40 43 36 44 48 64 68 80 64 58 53 53 53 57 82 80 77 78 79 79 75 74 75 75 76 74 73 73 73 73 73 72 71 71 72 72 72 75 73
54 55 62 66 66 60 56 52 49 48 42 40 42 41 50 72 73 64 53 54 53 56 54 60 80 78 75 77 77 78 77 72 73 73 72 73 73 72 71 70 71 72 72 71 71 72 72 74 76
50 62 66 53 54 50 51 44 46 45 42 42 42 54 62 61 62 57 56 52 53 56 53 72 80 75 74 75 75 74 74 73 73 72 71 71 71 70 71 71 71 71 71 70 68 68 68 69 71
43 50 45 48 49 46 41 40 43 46 47 46 43 60 65 66 59 60 58 53 52 53 54 63 81 78 76 73 74 75 73 73 73 72 72 71 70 69 68 68 68 69 67 67 69 69 69 64 63
42 47 43 42 44 45 42 39 42 45 48 48 55 55 72 67 65 62 55 53 50 57 51 56 77 78 78 73 72 74 73 72 72 72 72 72 72 72 72 69 68 67 65 64 64 67 71 67 65
38 43 38 40 49 49 43 39 42 45 49 45 46 65 78 77 63 62 55 51 51 56 53 59 58 68 73 75 74 73 72 72 72 72 72 72 73 72 71 70 70 68 70 69 68 70 70 69 67
35 36 35 38 47 41 42 42 42 42 46 44 44 64 68 69 66 58 56 54 54 59 63 66 64 61 63 59 72 72 73 72 72 72 74 77 75 72 72 74 74 72 67 69 70 70 72 72 73
30 29 34 31 36 27 44 43 41 39 43 45 44 49 51 63 61 59 60 60 67 64 59 60 62 60 62 58 60 74 73 74 74 76 77 73 55 57 63 73 71 70 72 68 66 66 68 69 71
23 34 27 24 25 30 43 43 39 45 46 53 50 56 59 63 64 61 59 63 60 64 65 56 57 55 59 55 64 66 60 58 62 82 76 80 68 71 72 80 75 72 72 74 67 64 68 69 54
25 27 23 21 20 20 38 42 38 47 50 44 49 61 63 63 62 57 55 54 56 61 61 61 64 67 64 59 61 62 61 63 66 78 76 77 71 67 74 86 93 84 83 75 54 53 54 61 57
19 18 21 20 22 22 37 38 41 44 39 37 39 54 59 62 60 53 53 54 60 65 63 64 64 73 73 64 66 65 64 69 65 82 74 71 67 71 71 64 82 78 82 73 71 77 63 58 63
15 14 13 15 17 20 35 40 39 42 40 41 46 58 59 57 55 51 50 52 61 66 64 65 71 75 75 82 69 72 70 65 60 60 63 67 63 65 79 75 67 66 65 82 82 81 61 61 58
16 13 14 14 13 20 28 39 40 42 44 49 52 54 54 55 54 57 58 60 65 63 63 61 68 71 73 78 80 71 68 60 62 60 62 71 64 68 71 71 67 66 76 91 89 86 73 65 57
14 15 16 15 15 18 25 30 38 44 44 48 51 52 53 55 56 60 56 58 59 57 60 61 66 64 74 75 73 66 60 56 60 60 67 70 70 71 77 67 74 72 78 92 89 75 73 68 64
17 18 17 15 16 23 21 20 38 49 45 48 50 53 54 57 56 56 55 54 55 58 65 74 62 60 70 73 70 62 63 62 61 58 59 68 71 75 78 74 69 80 74 68 69 69 71 72 71
17 16 17 14 13 21 22 24 41 49 46 49 50 49 51 55 56 55 53 53 52 61 65 67 61 58 64 72 71 66 70 69 62 61 60 69 74 70 72 67 69 77 69 72 70 69 69 79 83
17 14 14 18 13 15 22 26 37 47 49 49 51 50 51 54 51 52 51 50 50 55 64 68 62 67 71 67 74 70 69 70 65 63 65 69 72 70 73 66 73 73 69 72 70 74 69 69 64
14 14 16 14 15 21 32 30 36 44 45 43 39 40 44 48 48 45 49 47 51 55 61 67 69 74 71 68 66 67 66 65 70 68 70 70 70 70 76 64 71 71 70 74 77 71 76 68 69
13 14 13 14 19 21 35 32 38 37 39 39 38 36 32 40 51 49 51 48 47 55 60 66 72 75 73 67 66 64 68 64 61 64 74 68 66 68 69 73 66 75 67 80 80 81 71 69 68
13 13 13 13 15 28 30 30 38 36 39 39 38 40 40 49 56 54 51 50 49 52 60 67 79 74 79 79 72 78 76 73 68 66 66 66 67 67 72 74 70 74 72 76 80 78 82 91 77
12 11 11 12 15 18 25 20 38 38 41 41 38 36 37 37 41 52 50 48 47 49 57 62 75 83 84 88 80 82 71 88 71 74 59 82 69 68 67 72 73 75 65 75 87 70 75 85 87
11 10 11 14 14 17 23 24 28 43 37 36 33 37 34 36 44 51 49 50 48 50 55 63 71 84 91 92 96 81 86 91 66 88 81 84 71 71 68 74 75 74 65 71 76 76 87 69 85
11 12 14 17 16 18 25 27 21 29 35 35 35 39 39 38 42 60 55 56 62 62 60 67 81 88 94 95 95 90 86 85 89 90 90 76 62 61 71 71 76 84 84 74 70 75 78 75 74
11 10 13 16 17 19 22 30 23 24 33 36 40 41 39 39 42 47 61 66 74 74 72 74 84 96 96 95 93 90 87 89 90 85 65 89 93 89 64 75 76 69 79 74 80 80 77 76 73
12 10 13 23 19 17 27 25 21 29 31 42 44 41 43 40 43 48 55 65 70 72 74 77 83 90 94 92 94 95 87 85 73 86 89 85 62 60 68 76 79 75 76 72 73 68 76 80 79
15 14 11 16 25 23 25 27 24 42 39 38 36 40 40 38 42 47 52 62 68 70 72 74 82 85 82 86 96 94 93 86 86 85 86 89 76 64 71 71 72 72 76 74 81 91 80 85 86
14 14 18 20 29 28 24 35 25 30 36 37 36 39 37 42 47 50 56 62 67 64 65 66 70 77 81 90 97 92 94 86 81 75 81 84 77 75 74 73 70 73 76 79 79 84 73 79 90
17 18 23 19 23 23 25 23 29 35 34 38 40 40 49 51 50 53 58 65 66 68 66 66 66 69 79 90 89 91 86 74 71 69 74 76 77 78 79 78 76 76 77 78 78 80 75 75 80
16 20 18 20 29 30 28 21 28 40 41 36 39 48 56 57 54 56 56 62 68 69 70 71 73 71 70 73 82 84 80 76 69 69 68 68 75 77 80 78 77 76 75 75 77 72 67 74 76
Wind_Speed
11 8 3 2 0 5 2 2 2 1 4 3 8 3 1 4 1 3 8 11 20 21 19 17 15 15 14 14 15 15 15 15 14 13 13 12 12 12 13 12 12 11 11 12 12 11 13 13 12
9 7 1 1 2 2 1 3 2 2 2 7 9 5 2 3 3 8 15 16 22 20 19 18 16 15 15 14 14 14 16 15 13 12 12 12 11 11 10 11 10 10 10 10 10 11 11 11 13
9 3 2 2 2 2 2 2 2 2 3 5 4 5 3 3 5 15 10 21 21 18 17 17 17 16 16 16 15 14 13 14 13 12 11 10 10 10 9 8 8 9 9 8 8 9 10 10 10
4 3 2 2 5 1 2 3 2 5 3 2 5 6 6 4 7 8 18 21 19 18 17 18 18 18 17 16 16 15 14 14 12 12 10 9 9 8 8 8 8 7 7 8 8 9 9 8 7
1 2 1 2 2 2 3 6 6 4 1 3 0 4 5 4 8 15 18 19 19 17 15 17 17 17 17 16 16 15 15 14 13 12 10 9 9 8 8 8 7 7 6 5 6 7 7 6 7
2 2 2 2 2 1 3 5 5 2 2 3 5 6 4 5 13 15 17 18 17 17 16 16 17 16 16 17 17 15 15 15 13 12 11 11 10 9 10 10 9 9 9 8 7 7 6 7 8
1 1 0 0 1 1 3 5 4 4 4 2 9 4 3 6 12 15 16 15 16 15 15 14 15 16 17 16 16 16 15 15 14 13 13 13 11 10 9 9 9 9 8 8 8 8 7 9 9
1 1 2 1 2 2 4 7 2 6 5 6 4 4 6 11 15 15 15 15 14 14 14 14 13 14 13 13 16 17 16 16 14 14 14 12 10 9 9 5 7 8 8 7 8 6 6 6 7
1 2 3 1 5 2 6 7 4 3 7 4 5 4 8 20 18 16 15 15 13 13 14 14 15 14 13 12 13 15 16 15 14 14 12 9 6 7 5 5 4 8 8 8 5 5 6 6 6
2 1 3 2 2 3 4 5 4 5 6 4 5 8 18 21 19 20 19 17 18 17 16 14 15 15 14 10 11 13 11 10 10 8 8 6 6 6 4 3 3 9 9 7 5 6 6 7 5
3 3 4 3 6 3 5 5 3 3 7 10 15 16 20 22 18 18 18 18 18 17 14 15 14 13 14 11 9 7 7 7 7 9 5 5 4 4 2 3 3 5 7 4 6 5 4 5 5
4 5 3 6 2 4 6 5 5 10 2 3 11 18 21 21 20 20 19 18 17 16 16 15 15 13 13 9 9 9 7 7 7 6 6 5 4 4 4 4 3 4 3 4 5 3 5 5 5
2 6 9 8 8 2 8 6 6 7 4 3 14 17 20 19 18 16 15 15 15 16 16 15 14 13 12 11 9 9 8 8 8 7 7 6 6 5 4 4 4 4 4 3 5 4 5 5 6
5 10 13 7 6 4 6 4 4 4 7 10 15 17 18 20 18 14 15 15 16 15 16 15 16 14 12 12 11 9 8 8 7 6 7 8 6 5 4 4 4 4 3 1 3 4 5 5 6
6 7 7 3 5 3 3 5 3 1 7 12 13 14 15 17 17 19 18 18 17 14 15 16 16 15 14 14 11 9 8 8 7 7 8 8 8 6 6 5 4 4 3 4 3 5 4 5 6
3 2 6 2 7 3 5 9 3 3 8 10 12 13 15 18 20 18 16 16 15 14 15 11 12 15 15 13 10 9 8 7 7 7 7 9 9 9 7 5 5 3 3 3 4 4 4 5 5
6 4 5 8 5 2 3 5 3 4 8 8 9 11 12 14 17 18 19 17 15 15 14 14 15 16 15 13 10 10 9 8 7 7 7 9 10 10 8 6 5 5 3 3 3 4 4 4 5
4 5 6 6 3 5 3 8 4 2 6 6 7 10 12 14 19 17 18 16 16 16 15 13 12 14 13 10 9 8 8 8 8 8 8 10 8 11 9 6 5 5 4 4 4 4 4 4 4
3 5 9 6 3 0 2 5 3 0 4 5 7 9 12 14 14 15 16 17 15 15 16 17 15 15 11 10 9 9 10 9 8 8 11 10 9 10 9 6 6 6 5 5 5 5 5 4 4
3 8 7 7 2 2 3 7 3 3 2 4 7 11 12 12 10 11 13 16 16 16 18 17 19 17 14 11 10 8 7 8 8 7 9 10 10 10 9 8 7 6 4 5 5 6 4 4 3
5 6 4 6 3 4 1 5 1 1 4 5 4 5 6 8 8 7 10 11 14 17 16 14 11 16 14 13 8 7 5 6 6 6 7 8 9 9 10 9 8 7 6 5 5 6 7 3 3
4 9 8 6 2 2 4 4 0 2 8 8 8 8 9 9 6 5 8 11 13 13 12 14 13 13 12 11 10 12 10 9 8 7 8 7 9 9 9 9 9 8 6 6 5 5 6 6 4
2 1 1 1 2 4 3 4 2 2 6 9 7 10 11 11 10 9 7 11 9 9 9 12 12 13 13 12 9 10 10 7 6 5 9 9 7 10 10 10 10 9 8 7 6 6 7 6 4
3 2 1 2 2 2 2 3 1 3 3 4 4 9 11 12 11 8 4 4 6 5 8 9 10 12 11 11 11 9 11 9 8 7 5 7 7 7 9 9 9 10 8 8 7 7 7 7 6
4 3 2 3 0 2 1 4 3 2 5 1 5 7 9 10 12 10 4 4 5 6 8 8 10 11 12 14 13 12 6 9 10 12 10 8 5 6 10 10 9 9 10 10 7 7 7 8 7
5 6 4 2 2 3 2 3 3 1 2 1 6 7 6 6 9 10 5 3 5 6 7 9 10 10 10 11 12 7 4 6 9 10 8 7 6 7 8 9 9 12 10 9 8 6 7 8 7
6 4 3 6 1 4 2 4 3 1 4 3 3 5 1 6 9 9 5 4 5 6 7 7 7 5 8 9 2 6 8 11 12 9 8 6 6 6 8 9 10 10 9 10 9 5 7 7 7
4 9 4 1 3 3 2 5 5 3 7 7 6 5 5 6 5 3 1 4 5 5 6 6 5 5 3 6 6 5 6 11 7 5 7 7 6 7 9 8 9 10 11 10 8 7 9 8 6
4 4 6 3 3 3 3 3 2 4 5 9 6 5 6 6 6 4 4 4 6 5 6 6 6 6 7 7 8 7 9 6 4 5 5 5 6 7 10 9 9 10 10 9 9 10 11 9 9
2 4 1 3 4 1 2 4 2 4 2 7 5 5 5 7 7 6 6 6 5 5 4 4 4 5 7 7 8 9 8 8 8 8 7 6 8 8 10 11 11 10 11 11 12 12 10 11 11
Wind_Direction
141 136 140 222 137 61 330 14 318 341 160 169 161 193 174 64 235 42 135 146 148 153 151 157 150 150 144 135 136 141 146 148 147 144 142 141 133 129 127 126 125 127 121 120 122 115 118 119 120
142 143 155 321 70 108 248 264 325 331 91 147 146 128 136 95 78 120 142 151 151 152 154 155 153 150 155 149 142 143 151 151 147 146 147 146 141 138 135 128 127 125 123 124 127 127 127 123 128
165 230 266 83 56 70 68 231 101 112 116 157 136 55 50 69 84 146 139 149 153 153 155 153 159 154 161 160 154 151 154 156 152 154 154 151 152 150 145 144 142 136 135 132 135 132 128 127 127
189 178 141 65 82 117 267 222 189 149 87 43 106 75 92 319 153 147 145 150 155 153 160 152 157 159 161 166 166 164 164 166 165 165 168 169 169 163 160 165 160 152 155 155 159 147 141 134 135
243 257 31 73 69 165 210 190 168 180 144 103 113 103 78 53 120 139 150 157 158 157 162 157 160 162 162 169 172 176 176 174 176 177 185 192 197 195 183 190 185 172 175 180 192 185 173 193 196
223 262 51 53 100 93 191 194 175 166 118 129 100 117 81 114 137 147 155 161 160 160 165 160 164 163 167 173 175 180 182 182 183 186 193 200 204 200 191 194 197 201 205 208 217 224 218 217 200
304 314 194 111 17 229 202 194 214 171 160 124 132 101 98 155 148 151 158 161 164 165 166 168 170 170 174 180 180 184 188 189 191 193 198 205 208 207 212 210 211 227 232 221 225 231 230 226 208
289 307 281 115 211 268 177 179 147 167 167 137 163 146 168 170 156 151 156 163 169 170 171 172 173 174 180 184 187 189 192 196 198 208 209 212 206 217 221 228 231 251 255 241 230 233 235 223 211
151 317 302 131 190 242 168 198 121 107 134 165 142 138 131 147 153 153 160 165 173 182 184 179 176 179 186 187 187 195 197 203 207 215 213 212 220 222 235 233 233 249 252 245 224 242 221 229 213
250 294 258 249 226 247 182 203 160 166 140 163 149 101 138 151 161 165 174 176 182 183 188 191 184 181 186 193 194 198 204 207 215 213 222 210 221 223 243 219 330 285 254 253 232 227 220 225 219
169 248 318 208 228 227 164 221 196 195 198 196 193 156 159 161 171 179 185 187 187 186 188 193 194 189 190 193 196 205 204 210 217 226 208 209 216 227 198 231 180 230 268 235 230 207 201 207 215
240 268 232 313 291 160 165 167 228 229 309 338 184 163 164 173 180 185 187 188 188 193 194 194 197 195 202 197 198 205 206 207 215 216 210 214 220 211 236 231 224 237 248 229 220 202 204 217 211
313 336 316 311 276 228 140 193 209 238 237 90 151 161 174 184 190 191 190 190 190 195 198 197 199 203 199 207 206 204 216 210 220 219 218 221 231 227 231 231 239 248 248 244 210 203 211 227 229
323 317 306 303 291 195 181 197 214 90 134 133 161 174 182 191 188 190 197 191 198 200 200 197 202 203 208 210 213 211 214 217 216 223 226 222 237 227 232 242 240 240 230 211 254 230 222 233 242
325 322 319 326 304 312 165 252 239 56 163 151 174 179 188 195 197 203 201 199 198 201 199 202 201 198 210 217 214 218 220 217 218 222 228 226 227 224 238 247 239 238 230 219 211 231 232 245 242
24 20 329 2 332 31 242 259 34 237 183 174 180 187 196 202 204 211 212 210 200 208 206 199 205 205 208 218 217 219 226 230 222 220 232 224 226 227 221 231 255 247 234 226 217 222 212 230 236
34 315 340 327 343 153 182 311 325 238 209 196 191 203 207 211 214 214 213 211 208 204 202 204 207 211 209 216 227 228 225 227 233 224 229 233 228 226 231 227 241 246 242 234 216 217 235 235 224
326 322 318 290 1 335 247 264 284 242 223 212 218 224 225 220 224 218 221 218 213 207 203 205 207 216 212 210 221 230 238 236 231 229 224 230 227 223 221 224 223 221 237 222 213 223 209 253 259
246 285 306 292 299 311 300 253 16 3 251 250 244 257 259 249 242 229 224 224 217 212 207 210 207 207 200 199 212 231 230 230 231 234 236 223 221 216 210 216 205 212 231 233 217 237 243 245 227
274 296 285 282 1 295 226 254 345 7 289 286 300 288 285 281 260 239 230 227 223 217 207 206 208 202 206 199 202 218 234 238 238 236 231 228 226 220 211 210 207 206 220 225 221 216 229 236 211
243 238 259 266 27 67 275 258 91 358 280 293 273 308 315 300 306 252 224 227 222 223 215 213 207 202 203 197 200 201 218 236 229 224 226 227 228 221 219 213 215 203 222 232 220 223 223 228 176
256 214 244 268 242 316 314 299 325 248 292 296 302 317 339 343 343 267 220 204 215 223 208 214 198 189 189 185 202 216 224 208 232 229 227 222 227 231 223 219 217 215 219 227 226 213 234 242 245
300 181 262 314 163 206 37 267 101 255 254 263 312 337 338 336 347 322 237 226 213 213 209 204 200 176 171 170 167 236 242 247 223 218 237 235 228 232 232 221 219 220 217 222 223 214 220 226 253
112 180 89 149 200 188 8 297 70 209 244 254 14 347 340 342 356 21 2 193 179 195 199 193 186 176 168 172 155 212 249 261 235 229 231 240 231 225 227 223 218 222 211 215 212 215 228 230 232
191 229 263 196 358 6 84 238 301 235 228 279 320 322 319 343 339 356 15 183 170 164 169 174 175 177 186 179 186 194 219 248 249 249 239 239 225 222 229 220 216 216 218 220 207 206 220 226 234
186 240 234 207 262 3 178 265 29 156 241 4 284 283 277 331 339 329 337 234 190 171 177 183 184 190 190 202 187 154 270 260 265 252 241 243 239 249 235 235 224 226 221 215 215 222 218 222 234
142 177 58 115 118 251 350 258 222 173 216 188 94 112 104 338 327 322 316 212 188 185 193 203 200 224 236 225 150 157 235 254 253 250 245 249 253 254 241 236 237 240 238 226 220 215 227 227 236
265 133 174 133 215 270 189 282 266 48 102 143 107 43 349 337 339 342 113 175 194 193 181 198 197 214 186 127 189 200 229 230 228 253 258 250 275 267 244 228 227 233 234 242 222 231 241 234 240
149 131 63 95 323 262 272 265 196 236 118 123 99 32 3 27 55 71 103 137 173 200 210 221 227 205 172 169 183 201 236 247 230 238 249 257 272 264 247 232 223 228 226 230 222 219 238 236 243
43 93 129 267 172 90 325 276 195 340 100 111 65 30 53 49 68 93 90 109 144 180 201 238 248 223 213 200 195 202 224 226 217 231 256 263 268 259 245 233 223 223 224 227 216 218 231 232 240